OE3UKW Weather Reports


Display with metric or nautical units.
time (UTC)temp
F
wind
direction
speed
MPH
gust
MPH
rain 1hr
in
rain 24hr
in
rain mn
in
humidity
%
barometer
mb
20260507025109 58 241 15.0 18.0 0.00 0.00 0.00 57 1010.3
20260507024109 58 234 14.0 22.0 0.00 0.00 0.00 57 1010.3
20260507023109 58 257 11.0 19.0 0.00 0.00 0.00 58 1010.4
20260507022110 58 311 12.0 25.0 0.00 0.00 0.00 58 1010.1
20260507021109 58 254 14.0 23.0 0.00 0.00 0.00 58 1010.1
20260507020110 59 232 15.0 21.0 0.00 0.00 0.00 58 1010.2
20260507015109 59 244 16.0 20.0 0.00 0.00 0.00 57 1010.0
20260507014109 59 264 14.0 21.0 0.00 0.00 0.00 58 1009.9
20260507013124 60 244 10.0 17.0 0.00 0.00 0.00 57 1010.0
20260507012109 60 257 15.0 21.0 0.00 0.00 0.00 57 1010.0
20260507011109 60 232 15.0 22.0 0.00 0.00 0.00 57 1010.0
20260507010109 60 248 16.0 26.0 0.00 0.00 0.00 57 1009.8
20260507005110 60 360 18.0 23.0 0.00 0.00 0.00 57 1009.4
20260507004110 60 242 13.0 20.0 0.00 0.00 0.00 58 1009.4
20260507003110 60 240 13.0 19.0 0.00 0.00 0.00 58 1009.4
20260507002110 60 247 15.0 23.0 0.00 0.00 0.00 58 1009.3
20260507001110 61 263 17.0 25.0 0.00 0.00 0.00 58 1009.2
20260507000110 61 252 12.0 26.0 0.00 0.00 0.00 58 1009.2
20260506235110 61 259 15.0 21.0 0.00 0.00 0.00 59 1009.2
20260506234110 61 246 15.0 21.0 0.00 0.00 0.00 58 1009.3
20260506233110 60 244 18.0 22.0 0.00 0.00 0.00 58 1009.2
20260506232110 60 229 11.0 19.0 0.00 0.00 0.00 58 1008.9
20260506231110 60 225 9.0 11.0 0.00 0.00 0.00 58 1008.9
20260506230110 60 218 2.0 5.0 0.00 0.00 0.00 58 1008.8
20260506225110 60 220 4.0 7.0 0.00 0.00 0.00 58 1008.7
20260506224110 60 204 7.0 9.0 0.00 0.00 0.00 57 1008.6
20260506223110 61 195 5.0 9.0 0.00 0.00 0.00 57 1008.4
20260506222110 61 180 7.0 9.0 0.00 0.00 0.00 56 1007.9
20260506221110 62 171 8.0 11.0 0.00 0.00 0.00 55 1007.9
20260506220110 62 184 9.0 15.0 0.00 0.00 0.00 55 1007.9
20260506215113 63 173 10.0 12.0 0.00 0.00 0.00 54 1007.8
20260506214113 63 174 12.0 19.0 0.00 0.00 0.00 54 1007.6
20260506213113 63 153 13.0 21.0 0.00 0.00 0.00 53 1007.5
20260506212113 63 184 11.0 15.0 0.00 0.00 0.00 53 1007.3
20260506211113 64 163 10.0 20.0 0.00 0.00 0.00 53 1007.1
20260506210113 64 166 12.0 23.0 0.00 0.00 0.00 52 1007.2
20260506205113 64 163 11.0 20.0 0.00 0.00 0.00 52 1007.2
20260506204113 64 166 12.0 23.0 0.00 0.00 0.00 52 1007.0
20260506203113 64 173 16.0 24.0 0.00 0.00 0.00 51 1007.0
20260506202113 65 169 11.0 18.0 0.00 0.00 0.00 50 1007.0
20260506201113 65 155 11.0 16.0 0.00 0.00 0.00 50 1006.9
20260506200113 66 165 10.0 18.0 0.00 0.00 0.00 49 1006.9
20260506195113 66 169 13.0 21.0 0.00 0.00 0.00 48 1006.7
20260506194113 66 167 14.0 23.0 0.00 0.00 0.00 49 1006.4
20260506193113 65 171 11.0 19.0 0.00 0.00 0.00 49 1006.3
20260506192113 66 161 8.0 14.0 0.00 0.00 0.00 49 1006.3
20260506191113 66 159 6.0 14.0 0.00 0.00 0.00 48 1006.3
20260506190112 67 172 14.0 25.0 0.00 0.00 0.00 48 1006.1
20260506185112 67 161 13.0 23.0 0.00 0.00 0.00 47 1006.0
20260506184112 68 169 15.0 24.0 0.00 0.00 0.00 46 1005.9
20260506183113 68 180 15.0 21.0 0.00 0.00 0.00 46 1005.6
20260506182112 68 173 15.0 20.0 0.00 0.00 0.00 46 1005.5
20260506181112 69 167 7.0 17.0 0.00 0.00 0.00 46 1005.6
20260506180112 69 147 14.0 20.0 0.00 0.00 0.00 45 1005.3
20260506175113 69 173 10.0 20.0 0.00 0.00 0.00 45 1005.3
20260506174112 70 178 12.0 20.0 0.00 0.00 0.00 44 1005.4
20260506173112 70 159 12.0 19.0 0.00 0.00 0.00 43 1005.3
20260506172112 71 170 18.0 25.0 0.00 0.00 0.00 42 1005.2
20260506171112 71 182 13.0 31.0 0.00 0.00 0.00 40 1005.3
20260506170112 72 180 12.0 19.0 0.00 0.00 0.00 39 1005.4
20260506165112 72 172 13.0 23.0 0.00 0.00 0.00 38 1005.5
20260506164112 73 156 12.0 22.0 0.00 0.00 0.00 37 1005.4
20260506163112 73 177 19.0 30.0 0.00 0.00 0.00 36 1005.5
20260506162112 74 164 21.0 33.0 0.00 0.00 0.00 36 1005.5
20260506161112 74 178 14.0 35.0 0.00 0.00 0.00 36 1005.7
20260506160112 75 177 23.0 30.0 0.00 0.00 0.00 35 1005.7
20260506155112 75 191 19.0 30.0 0.00 0.00 0.00 35 1005.8
20260506154112 75 177 20.0 25.0 0.00 0.00 0.00 35 1005.8
20260506153112 75 169 15.0 22.0 0.00 0.00 0.00 35 1005.9
20260506152112 75 181 13.0 23.0 0.00 0.00 0.00 34 1005.9
20260506151112 76 138 17.0 25.0 0.00 0.00 0.00 33 1005.9
20260506150112 76 182 15.0 26.0 0.00 0.00 0.00 32 1005.9
20260506145112 76 167 16.0 28.0 0.00 0.00 0.00 33 1005.9
20260506144111 76 140 18.0 31.0 0.00 0.00 0.00 33 1006.2
20260506143111 78 161 18.0 26.0 0.00 0.00 0.00 32 1006.2
20260506142112 77 136 20.0 28.0 0.00 0.00 0.00 32 1006.2
20260506141112 78 147 15.0 29.0 0.00 0.00 0.00 32 1006.3
20260506140112 78 129 16.0 29.0 0.00 0.00 0.00 31 1006.5
20260506135112 77 159 18.0 26.0 0.00 0.00 0.00 31 1006.7
20260506134112 75 152 18.0 26.0 0.00 0.00 0.00 33 1006.8
20260506133111 75 151 15.0 23.0 0.00 0.00 0.00 32 1006.8
20260506132111 75 160 13.0 23.0 0.00 0.00 0.00 31 1006.8
20260506131111 76 126 15.0 20.0 0.00 0.00 0.00 32 1007.0
20260506130111 76 157 17.0 29.0 0.00 0.00 0.00 31 1007.0
20260506125111 76 140 14.0 28.0 0.00 0.00 0.00 31 1007.2
20260506124112 76 171 14.0 23.0 0.00 0.00 0.00 31 1007.5
20260506123111 77 182 17.0 24.0 0.00 0.00 0.00 31 1007.7
20260506122111 77 132 18.0 27.0 0.00 0.00 0.00 32 1007.8
20260506121111 77 155 15.0 30.0 0.00 0.00 0.00 31 1007.8
20260506120111 76 167 16.0 24.0 0.00 0.00 0.00 34 1008.1
20260506115111 76 153 18.0 29.0 0.00 0.00 0.00 35 1008.0
20260506114111 75 175 15.0 25.0 0.00 0.00 0.00 34 1008.1
20260506113111 77 167 12.0 24.0 0.00 0.00 0.00 34 1008.2
20260506112111 77 160 13.0 23.0 0.00 0.00 0.00 36 1008.3
20260506111111 76 115 11.0 23.0 0.00 0.00 0.00 36 1008.5
20260506110111 76 184 14.0 24.0 0.00 0.00 0.00 36 1008.5
20260506105111 76 138 18.0 26.0 0.00 0.00 0.00 37 1008.5
20260506104111 76 171 12.0 20.0 0.00 0.00 0.00 37 1008.6
20260506103111 76 136 13.0 22.0 0.00 0.00 0.00 37 1008.8
20260506102111 76 140 16.0 22.0 0.00 0.00 0.00 36 1009.0
20260506101111 77 360 13.0 20.0 0.00 0.00 0.00 39 1009.0
20260506100111 76 153 10.0 20.0 0.00 0.00 0.00 38 1009.1
20260506095111 76 140 10.0 16.0 0.00 0.00 0.00 38 1009.1
20260506094111 75 149 12.0 15.0 0.00 0.00 0.00 38 1009.1
20260506093111 76 125 10.0 17.0 0.00 0.00 0.00 38 1009.3
20260506092111 76 130 7.0 11.0 0.00 0.00 0.00 38 1009.3
20260506091111 75 123 9.0 13.0 0.00 0.00 0.00 38 1009.3
20260506090110 75 134 9.0 12.0 0.00 0.00 0.00 36 1009.4
20260506085110 75 163 6.0 13.0 0.00 0.00 0.00 37 1009.4
20260506084111 75 130 2.0 12.0 0.00 0.00 0.00 36 1009.5
20260506083111 74 172 4.0 9.0 0.00 0.00 0.00 38 1009.6
20260506082110 73 132 2.0 7.0 0.00 0.00 0.00 38 1009.5
20260506081111 73 179 3.0 6.0 0.00 0.00 0.00 39 1009.7
20260506080111 73 190 4.0 9.0 0.00 0.00 0.00 39 1009.8
20260506073110 70 257 1.0 7.0 0.00 0.00 0.00 45 1009.7
20260506072110 69 255 5.0 9.0 0.00 0.00 0.00 46 1009.9
20260506071110 69 233 5.0 9.0 0.00 0.00 0.00 45 1009.9
20260506070110 70 226 7.0 11.0 0.00 0.00 0.00 45 1009.9
20260506062110 66 256 10.0 14.0 0.00 0.00 0.00 51 1009.9
20260506061110 66 232 7.0 15.0 0.00 0.00 0.00 52 1009.7
20260506060110 64 224 11.0 15.0 0.00 0.00 0.00 54 1010.0
20260506051110 56 120 2.0 4.0 0.00 0.00 0.00 67 1009.8
20260506050110 55 129 2.0 6.0 0.00 0.00 0.00 67 1009.7
20260506045110 55 136 3.0 4.0 0.00 0.00 0.00 67 1009.5
20260506044110 54 142 2.0 3.0 0.00 0.00 0.00 67 1009.5
20260506043110 54 142 1.0 3.0 0.00 0.00 0.00 68 1009.4
20260506042110 53 144 4.0 6.0 0.00 0.00 0.00 67 1009.3
20260506041110 53 124 0.0 2.0 0.00 0.00 0.00 67 1009.2
20260506040110 53 124 3.0 5.0 0.00 0.00 0.00 67 1009.0
20260506035110 53 124 4.0 5.0 0.00 0.00 0.00 67 1009.0
20260506034110 53 127 4.0 7.0 0.00 0.00 0.00 67 1008.9
20260506033110 53 135 5.0 8.0 0.00 0.00 0.00 67 1008.9
20260506032110 53 105 0.0 4.0 0.00 0.00 0.00 67 1008.9
20260506031110 52 135 1.0 3.0 0.00 0.00 0.00 67 1009.0
20260506030110 52 159 4.0 7.0 0.00 0.00 0.00 67 1009.1